| time (UTC) | temp F | wind direction | speed MPH | gust MPH | rain 1hr in | rain 24hr in | rain mn in | humidity % | barometer mb |
| 20260902211604 | 61 | 355 | 0.0 | 0.0 | 0.07 | 0.14 | 0.14 | 89 | 1009.7 |
| 20260902211104 | 61 | 355 | 0.0 | 0.0 | 0.06 | 0.13 | 0.13 | 88 | 1009.7 |
| 20260902211022 | 61 | 355 | 0.0 | 0.0 | 0.06 | 0.13 | 0.13 | 88 | 1009.7 |
| 20260902210604 | 61 | 355 | 0.0 | 0.0 | 0.06 | 0.13 | 0.13 | 88 | 1009.7 |
| 20260902210104 | 61 | 355 | 0.0 | 0.0 | 0.05 | 0.12 | 0.12 | 88 | 1009.7 |
| 20260902210025 | 61 | 355 | 0.0 | 0.0 | 0.04 | 0.11 | 0.11 | 88 | 1009.7 |
| 20260902205103 | 61 | 354 | 0.0 | 0.0 | 0.04 | 0.10 | 0.10 | 88 | 1009.6 |
| 20260902205022 | 61 | 337 | 0.0 | 0.0 | 0.04 | 0.10 | 0.10 | 89 | 1009.6 |
| 20260902204604 | 61 | 337 | 0.0 | 0.0 | 0.04 | 0.10 | 0.10 | 89 | 1009.6 |
| 20260902203604 | 61 | 298 | 0.0 | 0.0 | 0.03 | 0.09 | 0.09 | 89 | 1009.9 |
| 20260902203104 | 61 | 298 | 0.0 | 0.0 | 0.03 | 0.09 | 0.09 | 89 | 1009.9 |
| 20260902203025 | 61 | 298 | 0.0 | 0.0 | 0.03 | 0.09 | 0.09 | 89 | 1009.8 |
| 20260902202603 | 61 | 298 | 0.0 | 0.0 | 0.03 | 0.09 | 0.09 | 89 | 1009.8 |
| 20260902202104 | 61 | 298 | 0.0 | 0.0 | 0.02 | 0.08 | 0.08 | 89 | 1009.7 |
| 20260902202023 | 61 | 298 | 0.0 | 0.0 | 0.01 | 0.07 | 0.07 | 89 | 1009.8 |
| 20260902201603 | 61 | 298 | 0.0 | 0.0 | 0.01 | 0.07 | 0.07 | 89 | 1009.8 |
| 20260902201104 | 61 | 298 | 0.0 | 0.0 | 0.01 | 0.07 | 0.07 | 89 | 1009.7 |
| 20260902201022 | 61 | 298 | 0.0 | 0.0 | 0.01 | 0.07 | 0.07 | 89 | 1009.7 |
| 20260902200604 | 61 | 298 | 0.0 | 0.0 | 0.01 | 0.07 | 0.07 | 89 | 1009.7 |
| 20260902200104 | 61 | 5 | 0.0 | 0.0 | 0.02 | 0.07 | 0.07 | 90 | 1009.7 |
| 20260902195604 | 61 | 5 | 0.0 | 0.0 | 0.02 | 0.07 | 0.07 | 89 | 1009.6 |
| 20260902195104 | 61 | 5 | 0.0 | 0.0 | 0.01 | 0.06 | 0.06 | 90 | 1009.6 |
| 20260902195023 | 60 | 5 | 0.0 | 0.0 | 0.01 | 0.06 | 0.06 | 90 | 1009.4 |
| 20260902194603 | 60 | 5 | 0.0 | 0.0 | 0.01 | 0.06 | 0.06 | 90 | 1009.4 |
| 20260902194104 | 60 | 5 | 0.0 | 0.0 | 0.02 | 0.06 | 0.06 | 90 | 1009.5 |
| 20260902194023 | 60 | 5 | 0.0 | 0.0 | 0.02 | 0.06 | 0.06 | 89 | 1009.6 |
| 20260902193104 | 60 | 5 | 0.0 | 0.0 | 0.02 | 0.06 | 0.06 | 89 | 1009.7 |
| 20260902193024 | 60 | 5 | 0.0 | 0.0 | 0.02 | 0.06 | 0.06 | 89 | 1009.7 |
| 20260902192604 | 60 | 5 | 0.0 | 0.0 | 0.02 | 0.06 | 0.06 | 89 | 1009.7 |
| 20260902192104 | 60 | 5 | 0.0 | 0.0 | 0.02 | 0.06 | 0.06 | 89 | 1009.7 |
| 20260902191104 | 59 | 5 | 0.0 | 0.0 | 0.02 | 0.06 | 0.06 | 88 | 1009.9 |
| 20260902190604 | 59 | 5 | 0.0 | 0.0 | 0.02 | 0.06 | 0.06 | 88 | 1009.8 |
| 20260902190104 | 59 | 5 | 0.0 | 0.0 | 0.01 | 0.05 | 0.05 | 88 | 1009.8 |
| 20260902190024 | 59 | 5 | 0.0 | 0.0 | 0.01 | 0.05 | 0.05 | 88 | 1009.7 |
| 20260902185604 | 59 | 5 | 0.0 | 0.0 | 0.01 | 0.05 | 0.05 | 88 | 1009.7 |
| 20260902185104 | 58 | 242 | 0.0 | 0.0 | 0.01 | 0.05 | 0.05 | 88 | 1009.8 |
| 20260902185022 | 58 | 242 | 0.0 | 0.0 | 0.01 | 0.05 | 0.05 | 88 | 1010.0 |
| 20260902184604 | 58 | 242 | 0.0 | 0.0 | 0.01 | 0.05 | 0.05 | 88 | 1010.0 |
| 20260902183603 | 58 | 242 | 0.0 | 0.0 | 0.01 | 0.04 | 0.04 | 88 | 1009.8 |
| 20260902183104 | 58 | 242 | 0.0 | 0.0 | 0.01 | 0.04 | 0.04 | 88 | 1009.9 |
| 20260902183025 | 58 | 242 | 0.0 | 0.0 | 0.01 | 0.04 | 0.04 | 88 | 1010.0 |
| 20260902182603 | 58 | 242 | 0.0 | 0.0 | 0.01 | 0.04 | 0.04 | 88 | 1010.0 |
| 20260902182104 | 58 | 242 | 0.0 | 0.0 | 0.01 | 0.04 | 0.04 | 88 | 1009.8 |
| 20260902182023 | 58 | 240 | 0.0 | 0.0 | 0.02 | 0.04 | 0.04 | 88 | 1009.8 |
| 20260902181604 | 58 | 240 | 0.0 | 0.0 | 0.02 | 0.04 | 0.04 | 88 | 1009.8 |
| 20260902181023 | 58 | 109 | 0.0 | 0.0 | 0.02 | 0.04 | 0.04 | 87 | 1009.8 |
| 20260902180603 | 58 | 109 | 0.0 | 0.0 | 0.02 | 0.04 | 0.04 | 87 | 1009.8 |
| 20260902180023 | 57 | 109 | 0.0 | 0.0 | 0.02 | 0.04 | 0.04 | 87 | 1009.7 |
| 20260902175604 | 57 | 109 | 0.0 | 0.0 | 0.02 | 0.04 | 0.04 | 87 | 1009.7 |
| 20260902175104 | 57 | 109 | 0.0 | 0.0 | 0.03 | 0.04 | 0.04 | 87 | 1009.7 |
| 20260902175023 | 57 | 109 | 0.0 | 0.0 | 0.03 | 0.04 | 0.04 | 86 | 1009.8 |
| 20260902174604 | 57 | 109 | 0.0 | 0.0 | 0.03 | 0.04 | 0.04 | 86 | 1009.8 |
| 20260902174104 | 57 | 109 | 0.0 | 0.0 | 0.02 | 0.03 | 0.03 | 86 | 1009.7 |
| 20260902174022 | 57 | 109 | 0.0 | 0.0 | 0.02 | 0.03 | 0.03 | 86 | 1009.7 |
| 20260902173603 | 57 | 109 | 0.0 | 0.0 | 0.02 | 0.03 | 0.03 | 86 | 1009.7 |
| 20260902173104 | 57 | 109 | 0.0 | 0.0 | 0.02 | 0.03 | 0.03 | 86 | 1009.6 |
| 20260902173024 | 57 | 109 | 0.0 | 0.0 | 0.03 | 0.03 | 0.03 | 86 | 1009.7 |
| 20260902172104 | 57 | 109 | 0.0 | 0.0 | 0.03 | 0.03 | 0.03 | 86 | 1009.8 |
| 20260902172023 | 57 | 109 | 0.0 | 0.0 | 0.02 | 0.02 | 0.02 | 86 | 1009.8 |
| 20260902171104 | 57 | 109 | 0.0 | 0.0 | 0.02 | 0.02 | 0.02 | 86 | 1009.8 |
| 20260902171023 | 57 | 109 | 0.0 | 0.0 | 0.02 | 0.02 | 0.02 | 85 | 1009.7 |
| 20260902170604 | 57 | 109 | 0.0 | 0.0 | 0.02 | 0.02 | 0.02 | 85 | 1009.7 |
| 20260902170104 | 57 | 109 | 0.0 | 0.0 | 0.02 | 0.02 | 0.02 | 85 | 1009.7 |
| 20260902170023 | 57 | 109 | 0.0 | 0.0 | 0.02 | 0.02 | 0.02 | 85 | 1009.6 |
| 20260902165604 | 57 | 109 | 0.0 | 0.0 | 0.02 | 0.02 | 0.02 | 85 | 1009.6 |
| 20260902165104 | 57 | 109 | 0.0 | 0.0 | 0.01 | 0.01 | 0.01 | 85 | 1009.6 |
| 20260902165023 | 57 | 109 | 0.0 | 0.0 | 0.01 | 0.01 | 0.01 | 84 | 1009.6 |
| 20260902164604 | 57 | 109 | 0.0 | 0.0 | 0.01 | 0.01 | 0.01 | 84 | 1009.6 |
| 20260902164104 | 57 | 109 | 0.0 | 0.0 | 0.01 | 0.01 | 0.01 | 84 | 1009.6 |
| 20260902164023 | 57 | 109 | 0.0 | 0.0 | 0.01 | 0.01 | 0.01 | 84 | 1009.7 |
| 20260902163604 | 57 | 109 | 0.0 | 0.0 | 0.01 | 0.01 | 0.01 | 84 | 1009.7 |
| 20260902163104 | 57 | 109 | 0.0 | 0.0 | 0.01 | 0.01 | 0.01 | 84 | 1009.6 |
| 20260902163025 | 57 | 109 | 0.0 | 0.0 | 0.00 | 0.00 | 0.00 | 83 | 1009.6 |
| 20260902162604 | 57 | 109 | 0.0 | 0.0 | 0.00 | 0.00 | 0.00 | 83 | 1009.6 |
| 20260902162103 | 57 | 109 | 0.0 | 0.0 | 0.00 | 0.00 | 0.00 | 83 | 1009.6 |
| 20260902162023 | 57 | 109 | 0.0 | 0.0 | 0.00 | 0.00 | 0.00 | 83 | 1009.7 |
| 20260902161604 | 57 | 109 | 0.0 | 0.0 | 0.00 | 0.00 | 0.00 | 83 | 1009.7 |
| 20260902161104 | 57 | 109 | 0.0 | 0.0 | 0.00 | 0.00 | 0.00 | 82 | 1009.7 |
| 20260902161023 | 57 | 110 | 0.0 | 0.0 | 0.00 | 0.00 | 0.00 | 82 | 1009.7 |
| 20260902160604 | 57 | 110 | 0.0 | 0.0 | 0.00 | 0.00 | 0.00 | 82 | 1009.7 |
| 20260902160104 | 57 | 110 | 0.0 | 0.0 | 0.00 | 0.00 | 0.00 | 81 | 1009.7 |
| 20260902160025 | 57 | 110 | 0.0 | 0.0 | 0.00 | 0.00 | 0.00 | 81 | 1009.7 |
| 20260902155604 | 57 | 110 | 0.0 | 0.0 | 0.00 | 0.00 | 0.00 | 81 | 1009.7 |
| 20260902155104 | 57 | 110 | 0.0 | 0.0 | 0.00 | 0.00 | 0.00 | 80 | 1009.7 |
| 20260902155023 | 57 | 110 | 0.0 | 0.0 | 0.00 | 0.00 | 0.00 | 79 | 1009.7 |
| 20260902154104 | 57 | 113 | 0.0 | 0.0 | 0.00 | 0.00 | 0.00 | 78 | 1009.8 |
| 20260902154022 | 57 | 153 | 0.0 | 0.0 | 0.00 | 0.00 | 0.00 | 78 | 1009.9 |
| 20260902153604 | 57 | 153 | 0.0 | 0.0 | 0.00 | 0.00 | 0.00 | 78 | 1009.9 |
| 20260902153104 | 57 | 153 | 0.0 | 0.0 | 0.00 | 0.00 | 0.00 | 79 | 1009.9 |
| 20260902153024 | 56 | 153 | 0.0 | 0.0 | 0.00 | 0.00 | 0.00 | 80 | 1009.8 |
| 20260902152604 | 56 | 153 | 0.0 | 0.0 | 0.00 | 0.00 | 0.00 | 80 | 1009.8 |
| 20260902152104 | 56 | 153 | 0.0 | 0.0 | 0.00 | 0.00 | 0.00 | 79 | 1009.9 |
| 20260902152022 | 56 | 154 | 0.0 | 0.0 | 0.00 | 0.00 | 0.00 | 79 | 1010.0 |
| 20260902151604 | 56 | 154 | 0.0 | 0.0 | 0.00 | 0.00 | 0.00 | 79 | 1010.0 |
| 20260902151104 | 56 | 166 | 0.0 | 0.0 | 0.00 | 0.00 | 0.00 | 80 | 1010.0 |
| 20260902150604 | 56 | 166 | 0.0 | 0.0 | 0.00 | 0.00 | 0.00 | 80 | 1009.9 |
| 20260902150104 | 56 | 166 | 0.0 | 0.0 | 0.00 | 0.00 | 0.00 | 80 | 1010.0 |
| 20260902150025 | 55 | 166 | 0.0 | 0.0 | 0.00 | 0.00 | 0.00 | 80 | 1010.0 |
| 20260902145603 | 55 | 166 | 0.0 | 0.0 | 0.00 | 0.00 | 0.00 | 80 | 1010.0 |
| 20260902145022 | 55 | 166 | 0.0 | 0.0 | 0.00 | 0.00 | 0.00 | 81 | 1010.0 |
| 20260902144604 | 55 | 166 | 0.0 | 0.0 | 0.00 | 0.00 | 0.00 | 81 | 1010.0 |
| 20260902144104 | 55 | 166 | 0.0 | 0.0 | 0.00 | 0.00 | 0.00 | 81 | 1010.0 |
| 20260902144023 | 55 | 166 | 0.0 | 0.0 | 0.00 | 0.00 | 0.00 | 81 | 1010.0 |
| 20260902143604 | 55 | 166 | 0.0 | 0.0 | 0.00 | 0.00 | 0.00 | 81 | 1010.0 |
| 20260902143104 | 55 | 166 | 0.0 | 0.0 | 0.00 | 0.00 | 0.00 | 81 | 1010.0 |
| 20260902142605 | 55 | 166 | 0.0 | 0.0 | 0.00 | 0.00 | 0.00 | 82 | 1010.1 |
| 20260902142104 | 54 | 166 | 0.0 | 0.0 | 0.00 | 0.00 | 0.00 | 81 | 1010.1 |
| 20260902142022 | 54 | 166 | 0.0 | 0.0 | 0.00 | 0.00 | 0.00 | 82 | 1010.1 |
| 20260902141604 | 54 | 166 | 0.0 | 0.0 | 0.00 | 0.00 | 0.00 | 82 | 1010.1 |
| 20260902141104 | 54 | 166 | 0.0 | 0.0 | 0.00 | 0.00 | 0.00 | 82 | 1010.1 |
| 20260902141022 | 54 | 166 | 0.0 | 0.0 | 0.00 | 0.00 | 0.00 | 82 | 1010.2 |
| 20260902140104 | 54 | 166 | 0.0 | 0.0 | 0.00 | 0.00 | 0.00 | 82 | 1010.1 |
| 20260902140025 | 54 | 166 | 0.0 | 0.0 | 0.00 | 0.00 | 0.00 | 82 | 1010.1 |
| 20260902135603 | 54 | 166 | 0.0 | 0.0 | 0.00 | 0.00 | 0.00 | 82 | 1010.1 |
| 20260902135104 | 54 | 166 | 0.0 | 0.0 | 0.00 | 0.00 | 0.00 | 82 | 1010.1 |
| 20260902135022 | 54 | 166 | 0.0 | 0.0 | 0.00 | 0.00 | 0.00 | 81 | 1010.1 |
| 20260902134604 | 54 | 166 | 0.0 | 0.0 | 0.00 | 0.00 | 0.00 | 81 | 1010.1 |
| 20260902134022 | 54 | 166 | 0.0 | 0.0 | 0.00 | 0.00 | 0.00 | 81 | 1010.2 |
| 20260902133604 | 54 | 166 | 0.0 | 0.0 | 0.00 | 0.00 | 0.00 | 81 | 1010.2 |
| 20260902133103 | 54 | 166 | 0.0 | 0.0 | 0.00 | 0.00 | 0.00 | 81 | 1010.2 |
| 20260902133022 | 54 | 166 | 0.0 | 0.0 | 0.00 | 0.00 | 0.00 | 81 | 1010.1 |
| 20260902132604 | 54 | 166 | 0.0 | 0.0 | 0.00 | 0.00 | 0.00 | 81 | 1010.1 |
| 20260902132103 | 54 | 166 | 0.0 | 0.0 | 0.00 | 0.00 | 0.00 | 81 | 1010.3 |
| 20260902132022 | 54 | 166 | 0.0 | 0.0 | 0.00 | 0.00 | 0.00 | 81 | 1010.3 |
| 20260902131604 | 54 | 166 | 0.0 | 0.0 | 0.00 | 0.00 | 0.00 | 81 | 1010.3 |
| 20260902131103 | 54 | 166 | 0.0 | 0.0 | 0.00 | 0.00 | 0.00 | 81 | 1010.3 |
| 20260902131022 | 54 | 166 | 0.0 | 0.0 | 0.00 | 0.00 | 0.00 | 81 | 1010.3 |
| 20260902130604 | 54 | 166 | 0.0 | 0.0 | 0.00 | 0.00 | 0.00 | 81 | 1010.3 |
| 20260902130022 | 53 | 166 | 0.0 | 0.0 | 0.00 | 0.00 | 0.00 | 82 | 1010.4 |
| 20260902125604 | 53 | 166 | 0.0 | 0.0 | 0.00 | 0.00 | 0.00 | 82 | 1010.4 |
| 20260902125103 | 53 | 166 | 0.0 | 0.0 | 0.00 | 0.00 | 0.00 | 82 | 1010.3 |
| 20260902125022 | 53 | 166 | 0.0 | 0.0 | 0.00 | 0.00 | 0.00 | 82 | 1010.4 |
| 20260902124604 | 53 | 166 | 0.0 | 0.0 | 0.00 | 0.00 | 0.00 | 82 | 1010.4 |
| 20260902124103 | 53 | 166 | 0.0 | 0.0 | 0.00 | 0.00 | 0.00 | 82 | 1010.4 |
| 20260902124022 | 53 | 166 | 0.0 | 0.0 | 0.00 | 0.00 | 0.00 | 82 | 1010.4 |
| 20260902123603 | 53 | 166 | 0.0 | 0.0 | 0.00 | 0.00 | 0.00 | 82 | 1010.4 |
| 20260902123104 | 53 | 166 | 0.0 | 0.0 | 0.00 | 0.00 | 0.00 | 82 | 1010.5 |
| 20260902123022 | 53 | 166 | 0.0 | 0.0 | 0.00 | 0.00 | 0.00 | 82 | 1010.5 |
| 20260902122604 | 53 | 166 | 0.0 | 0.0 | 0.00 | 0.00 | 0.00 | 82 | 1010.5 |
| 20260902122104 | 53 | 166 | 0.0 | 0.0 | 0.00 | 0.00 | 0.00 | 82 | 1010.5 |
| 20260902121604 | 53 | 166 | 0.0 | 0.0 | 0.00 | 0.00 | 0.00 | 82 | 1010.5 |
| 20260902121104 | 53 | 166 | 0.0 | 0.0 | 0.00 | 0.00 | 0.00 | 82 | 1010.5 |
| 20260902121023 | 53 | 166 | 0.0 | 0.0 | 0.00 | 0.00 | 0.00 | 82 | 1010.7 |
| 20260902120603 | 53 | 166 | 0.0 | 0.0 | 0.00 | 0.00 | 0.00 | 82 | 1010.7 |
| 20260902120104 | 53 | 166 | 0.0 | 0.0 | 0.00 | 0.00 | 0.00 | 82 | 1010.6 |
| 20260902120022 | 53 | 166 | 0.0 | 0.0 | 0.00 | 0.00 | 0.00 | 82 | 1010.9 |
| 20260902115603 | 53 | 166 | 0.0 | 0.0 | 0.00 | 0.00 | 0.00 | 82 | 1010.9 |
| 20260902115104 | 53 | 166 | 0.0 | 0.0 | 0.00 | 0.00 | 0.00 | 82 | 1011.1 |
| 20260902115022 | 53 | 166 | 0.0 | 0.0 | 0.00 | 0.00 | 0.00 | 81 | 1011.1 |
| 20260902114603 | 53 | 166 | 0.0 | 0.0 | 0.00 | 0.00 | 0.00 | 81 | 1011.1 |
| 20260902114104 | 53 | 166 | 0.0 | 0.0 | 0.00 | 0.00 | 0.00 | 81 | 1011.0 |
| 20260902114023 | 53 | 166 | 0.0 | 0.0 | 0.00 | 0.00 | 0.00 | 81 | 1011.2 |
| 20260902113603 | 53 | 166 | 0.0 | 0.0 | 0.00 | 0.00 | 0.00 | 81 | 1011.2 |
| 20260902113104 | 53 | 166 | 0.0 | 0.0 | 0.00 | 0.00 | 0.00 | 80 | 1011.2 |
| 20260902113023 | 53 | 166 | 0.0 | 0.0 | 0.00 | 0.00 | 0.00 | 80 | 1011.3 |
| 20260902112604 | 53 | 166 | 0.0 | 0.0 | 0.00 | 0.00 | 0.00 | 80 | 1011.3 |
| 20260902112104 | 53 | 166 | 0.0 | 0.0 | 0.00 | 0.00 | 0.00 | 80 | 1011.3 |
| 20260902112023 | 53 | 166 | 0.0 | 0.0 | 0.00 | 0.00 | 0.00 | 80 | 1011.4 |
| 20260902111104 | 53 | 166 | 0.0 | 0.0 | 0.00 | 0.00 | 0.00 | 80 | 1011.5 |
| 20260902111023 | 53 | 166 | 0.0 | 0.0 | 0.00 | 0.00 | 0.00 | 79 | 1011.4 |
| 20260902110604 | 53 | 166 | 0.0 | 0.0 | 0.00 | 0.00 | 0.00 | 79 | 1011.4 |
| 20260902110104 | 54 | 166 | 0.0 | 0.0 | 0.00 | 0.00 | 0.00 | 79 | 1011.5 |
| 20260902110022 | 54 | 166 | 0.0 | 0.0 | 0.00 | 0.00 | 0.00 | 79 | 1011.4 |
| 20260902105604 | 54 | 166 | 0.0 | 0.0 | 0.00 | 0.00 | 0.00 | 79 | 1011.4 |
| 20260902105104 | 54 | 166 | 0.0 | 0.0 | 0.00 | 0.00 | 0.00 | 79 | 1011.5 |
| 20260902105022 | 54 | 166 | 0.0 | 0.0 | 0.00 | 0.00 | 0.00 | 78 | 1011.5 |
| 20260902104103 | 54 | 166 | 0.0 | 0.0 | 0.00 | 0.00 | 0.00 | 78 | 1011.4 |
| 20260902104022 | 54 | 166 | 0.0 | 0.0 | 0.00 | 0.00 | 0.00 | 78 | 1011.5 |
| 20260902103604 | 54 | 166 | 0.0 | 0.0 | 0.00 | 0.00 | 0.00 | 78 | 1011.5 |
| 20260902103104 | 54 | 166 | 0.0 | 0.0 | 0.00 | 0.00 | 0.00 | 78 | 1011.5 |
| 20260902103023 | 54 | 166 | 0.0 | 0.0 | 0.00 | 0.00 | 0.00 | 77 | 1011.6 |
| 20260902102604 | 54 | 166 | 0.0 | 0.0 | 0.00 | 0.00 | 0.00 | 77 | 1011.6 |
| 20260902102104 | 54 | 166 | 0.0 | 0.0 | 0.00 | 0.00 | 0.00 | 77 | 1011.6 |
| 20260902102022 | 55 | 166 | 0.0 | 0.0 | 0.00 | 0.00 | 0.00 | 77 | 1011.6 |
| 20260902101022 | 55 | 166 | 0.0 | 0.0 | 0.00 | 0.00 | 0.00 | 76 | 1011.7 |
| 20260902100604 | 55 | 166 | 0.0 | 0.0 | 0.00 | 0.00 | 0.00 | 76 | 1011.7 |
| 20260902100104 | 55 | 166 | 0.0 | 0.0 | 0.00 | 0.00 | 0.00 | 76 | 1011.7 |
| 20260902095603 | 55 | 166 | 0.0 | 0.0 | 0.00 | 0.00 | 0.00 | 76 | 1011.8 |
| 20260902095104 | 55 | 166 | 0.0 | 0.0 | 0.00 | 0.00 | 0.00 | 76 | 1011.9 |
| 20260902094103 | 56 | 166 | 0.0 | 0.0 | 0.00 | 0.00 | 0.00 | 76 | 1011.7 |
| 20260902094022 | 56 | 166 | 0.0 | 0.0 | 0.00 | 0.00 | 0.00 | 76 | 1011.8 |
| 20260902093603 | 56 | 166 | 0.0 | 0.0 | 0.00 | 0.00 | 0.00 | 76 | 1011.8 |
| 20260902093103 | 56 | 166 | 0.0 | 0.0 | 0.00 | 0.00 | 0.00 | 76 | 1011.8 |
| 20260902093021 | 56 | 166 | 0.0 | 0.0 | 0.00 | 0.00 | 0.00 | 76 | 1011.9 |
| 20260902092604 | 56 | 166 | 0.0 | 0.0 | 0.00 | 0.00 | 0.00 | 76 | 1011.9 |
| 20260902092104 | 56 | 166 | 0.0 | 0.0 | 0.00 | 0.00 | 0.00 | 75 | 1012.0 |
| 20260902092023 | 56 | 166 | 0.0 | 0.0 | 0.00 | 0.00 | 0.00 | 75 | 1012.0 |
| 20260902091104 | 57 | 166 | 0.0 | 0.0 | 0.00 | 0.00 | 0.00 | 75 | 1012.0 |
| 20260902091022 | 57 | 166 | 0.0 | 0.0 | 0.00 | 0.00 | 0.00 | 74 | 1012.1 |
| 20260902090603 | 57 | 166 | 0.0 | 0.0 | 0.00 | 0.00 | 0.00 | 74 | 1012.1 |
| 20260902090104 | 57 | 166 | 0.0 | 0.0 | 0.00 | 0.00 | 0.00 | 74 | 1012.1 |
| 20260902090021 | 57 | 166 | 0.0 | 0.0 | 0.00 | 0.00 | 0.00 | 74 | 1012.2 |
| 20260902085604 | 57 | 166 | 0.0 | 0.0 | 0.00 | 0.00 | 0.00 | 74 | 1012.2 |
| 20260902085104 | 58 | 139 | 0.0 | 0.0 | 0.00 | 0.00 | 0.00 | 73 | 1012.3 |
| 20260902084604 | 58 | 128 | 0.0 | 0.0 | 0.00 | 0.00 | 0.00 | 73 | 1012.4 |
| 20260902084023 | 59 | 128 | 0.0 | 0.0 | 0.00 | 0.00 | 0.00 | 73 | 1012.2 |
| 20260902083604 | 59 | 128 | 0.0 | 0.0 | 0.00 | 0.00 | 0.00 | 73 | 1012.2 |
| 20260902083104 | 59 | 128 | 0.0 | 0.0 | 0.00 | 0.00 | 0.00 | 72 | 1012.3 |
| 20260902083022 | 59 | 128 | 0.0 | 0.0 | 0.00 | 0.00 | 0.00 | 72 | 1012.3 |
| 20260902082604 | 59 | 128 | 0.0 | 0.0 | 0.00 | 0.00 | 0.00 | 72 | 1012.3 |
| 20260902082103 | 59 | 128 | 0.0 | 0.0 | 0.00 | 0.00 | 0.00 | 71 | 1012.2 |
| 20260902081604 | 59 | 128 | 0.0 | 0.0 | 0.00 | 0.00 | 0.00 | 71 | 1012.1 |
| 20260902080604 | 60 | 128 | 0.0 | 0.0 | 0.00 | 0.00 | 0.00 | 71 | 1012.1 |
| 20260902080104 | 60 | 128 | 0.0 | 0.0 | 0.00 | 0.00 | 0.00 | 71 | 1012.1 |
| 20260902080022 | 60 | 128 | 0.0 | 0.0 | 0.00 | 0.00 | 0.00 | 71 | 1012.1 |
| 20260902075104 | 60 | 128 | 0.0 | 0.0 | 0.00 | 0.00 | 0.00 | 71 | 1011.9 |
| 20260902075023 | 60 | 128 | 0.0 | 0.0 | 0.00 | 0.00 | 0.00 | 71 | 1011.9 |
| 20260902074604 | 60 | 128 | 0.0 | 0.0 | 0.00 | 0.00 | 0.00 | 71 | 1011.9 |
| 20260902073604 | 60 | 128 | 0.0 | 0.0 | 0.00 | 0.00 | 0.00 | 71 | 1011.8 |
| 20260902073022 | 60 | 128 | 0.0 | 0.0 | 0.00 | 0.00 | 0.00 | 71 | 1011.9 |
| 20260902072604 | 60 | 128 | 0.0 | 0.0 | 0.00 | 0.00 | 0.00 | 71 | 1011.9 |
| 20260902072104 | 60 | 128 | 0.0 | 0.0 | 0.00 | 0.00 | 0.00 | 71 | 1011.9 |
| 20260902072022 | 61 | 128 | 0.0 | 0.0 | 0.00 | 0.00 | 0.00 | 71 | 1011.7 |
| 20260902071604 | 61 | 128 | 0.0 | 0.0 | 0.00 | 0.00 | 0.00 | 71 | 1011.7 |
| 20260902071103 | 61 | 128 | 0.0 | 0.0 | 0.00 | 0.00 | 0.00 | 72 | 1011.7 |
| 20260902071023 | 61 | 128 | 0.0 | 0.0 | 0.00 | 0.00 | 0.00 | 72 | 1011.8 |
| 20260902070604 | 61 | 128 | 0.0 | 0.0 | 0.00 | 0.00 | 0.00 | 72 | 1011.8 |
| 20260902070104 | 61 | 125 | 0.0 | 0.0 | 0.00 | 0.00 | 0.00 | 71 | 1011.8 |
| 20260902070021 | 61 | 125 | 0.0 | 0.0 | 0.00 | 0.00 | 0.00 | 71 | 1011.8 |
| 20260902065603 | 61 | 125 | 0.0 | 0.0 | 0.00 | 0.00 | 0.00 | 71 | 1011.8 |
| 20260902065022 | 61 | 125 | 0.0 | 0.0 | 0.00 | 0.00 | 0.00 | 72 | 1011.8 |
| 20260902064104 | 61 | 125 | 0.0 | 0.0 | 0.00 | 0.00 | 0.00 | 72 | 1011.8 |
| 20260902064022 | 61 | 126 | 0.0 | 0.0 | 0.00 | 0.00 | 0.00 | 73 | 1011.7 |
| 20260902063604 | 61 | 126 | 0.0 | 0.0 | 0.00 | 0.00 | 0.00 | 73 | 1011.7 |
| 20260902063104 | 61 | 128 | 0.0 | 0.0 | 0.00 | 0.00 | 0.00 | 73 | 1011.7 |
| 20260902063022 | 61 | 147 | 0.0 | 0.0 | 0.00 | 0.00 | 0.00 | 74 | 1011.8 |
| 20260902062604 | 61 | 147 | 0.0 | 0.0 | 0.00 | 0.00 | 0.00 | 74 | 1011.8 |
| 20260902062104 | 61 | 148 | 0.0 | 0.0 | 0.00 | 0.00 | 0.00 | 74 | 1011.8 |
| 20260902062023 | 61 | 142 | 1.0 | 3.0 | 0.00 | 0.00 | 0.00 | 74 | 1011.8 |
| 20260902060603 | 61 | 126 | 0.0 | 0.0 | 0.00 | 0.00 | 0.00 | 74 | 1011.9 |
| 20260902060104 | 62 | 132 | 0.0 | 0.0 | 0.00 | 0.00 | 0.00 | 74 | 1011.8 |
| 20260902060022 | 62 | 141 | 1.0 | 7.0 | 0.00 | 0.00 | 0.00 | 74 | 1011.8 |
| 20260902055604 | 62 | 141 | 1.0 | 7.0 | 0.00 | 0.00 | 0.00 | 74 | 1011.8 |
| 20260902055103 | 62 | 137 | 0.0 | 3.0 | 0.00 | 0.00 | 0.00 | 74 | 1011.9 |
| 20260902055022 | 62 | 151 | 0.0 | 2.0 | 0.00 | 0.00 | 0.00 | 74 | 1012.1 |
| 20260902054604 | 62 | 151 | 0.0 | 2.0 | 0.00 | 0.00 | 0.00 | 74 | 1012.1 |
| 20260902054104 | 62 | 125 | 0.0 | 0.0 | 0.00 | 0.00 | 0.00 | 73 | 1012.1 |
| 20260902054023 | 62 | 124 | 0.0 | 0.0 | 0.00 | 0.00 | 0.00 | 73 | 1012.1 |
| 20260902053022 | 62 | 139 | 0.0 | 0.0 | 0.00 | 0.00 | 0.00 | 74 | 1012.1 |
| 20260902052604 | 62 | 139 | 0.0 | 0.0 | 0.00 | 0.00 | 0.00 | 74 | 1012.1 |
| 20260902052022 | 62 | 149 | 0.0 | 0.0 | 0.00 | 0.00 | 0.00 | 74 | 1012.2 |
| 20260902051604 | 62 | 149 | 0.0 | 0.0 | 0.00 | 0.00 | 0.00 | 74 | 1012.2 |
| 20260902051104 | 62 | 151 | 0.0 | 0.0 | 0.00 | 0.00 | 0.00 | 74 | 1012.1 |
| 20260902051022 | 62 | 139 | 0.0 | 0.0 | 0.00 | 0.00 | 0.00 | 74 | 1012.1 |
| 20260902050604 | 62 | 139 | 0.0 | 0.0 | 0.00 | 0.00 | 0.00 | 74 | 1012.1 |
| 20260902050104 | 62 | 126 | 0.0 | 0.0 | 0.00 | 0.00 | 0.00 | 74 | 1012.0 |
| 20260902045104 | 63 | 126 | 0.0 | 0.0 | 0.00 | 0.00 | 0.00 | 74 | 1012.1 |
| 20260902044104 | 63 | 126 | 0.0 | 0.0 | 0.00 | 0.00 | 0.00 | 73 | 1012.1 |
| 20260902043604 | 63 | 126 | 0.0 | 0.0 | 0.00 | 0.00 | 0.00 | 73 | 1012.1 |
| 20260902043103 | 63 | 126 | 0.0 | 0.0 | 0.00 | 0.00 | 0.00 | 74 | 1012.1 |
| 20260902043023 | 63 | 126 | 0.0 | 0.0 | 0.00 | 0.00 | 0.00 | 74 | 1012.1 |
| 20260902042603 | 63 | 126 | 0.0 | 0.0 | 0.00 | 0.00 | 0.00 | 74 | 1012.1 |
| 20260902042104 | 63 | 126 | 0.0 | 0.0 | 0.00 | 0.00 | 0.00 | 74 | 1012.0 |
| 20260902042021 | 63 | 133 | 0.0 | 0.0 | 0.00 | 0.00 | 0.00 | 73 | 1011.8 |
| 20260902041104 | 63 | 137 | 0.0 | 0.0 | 0.00 | 0.00 | 0.00 | 74 | 1011.9 |
| 20260902041023 | 63 | 137 | 0.0 | 0.0 | 0.00 | 0.00 | 0.00 | 74 | 1011.7 |
| 20260902040104 | 63 | 147 | 0.0 | 0.0 | 0.00 | 0.00 | 0.00 | 73 | 1011.7 |
| 20260902040022 | 63 | 156 | 0.0 | 0.0 | 0.00 | 0.00 | 0.00 | 73 | 1011.7 |
| 20260902035604 | 63 | 156 | 0.0 | 0.0 | 0.00 | 0.00 | 0.00 | 73 | 1011.7 |
| 20260902035104 | 63 | 130 | 0.0 | 0.0 | 0.00 | 0.00 | 0.00 | 72 | 1011.7 |
| 20260902035022 | 64 | 146 | 0.0 | 0.0 | 0.00 | 0.00 | 0.00 | 73 | 1011.6 |
| 20260902034603 | 64 | 146 | 0.0 | 0.0 | 0.00 | 0.00 | 0.00 | 73 | 1011.6 |
| 20260902034103 | 64 | 130 | 0.0 | 0.0 | 0.00 | 0.00 | 0.00 | 72 | 1011.4 |
| 20260902033604 | 64 | 141 | 0.0 | 0.0 | 0.00 | 0.00 | 0.00 | 71 | 1011.3 |
| 20260902033104 | 64 | 120 | 0.0 | 0.0 | 0.00 | 0.00 | 0.00 | 70 | 1011.3 |
| 20260902033022 | 65 | 123 | 0.0 | 0.0 | 0.00 | 0.00 | 0.00 | 70 | 1011.2 |
| 20260902032604 | 65 | 123 | 0.0 | 0.0 | 0.00 | 0.00 | 0.00 | 70 | 1011.2 |
| 20260902032104 | 65 | 129 | 0.0 | 0.0 | 0.00 | 0.00 | 0.00 | 68 | 1011.1 |
| 20260902032023 | 65 | 98 | 0.0 | 0.0 | 0.00 | 0.00 | 0.00 | 67 | 1011.1 |
| 20260902031604 | 65 | 98 | 0.0 | 0.0 | 0.00 | 0.00 | 0.00 | 67 | 1011.1 |
| 20260902031023 | 66 | 122 | 1.0 | 3.0 | 0.00 | 0.00 | 0.00 | 64 | 1010.8 |
| 20260902030604 | 66 | 122 | 1.0 | 3.0 | 0.00 | 0.00 | 0.00 | 64 | 1010.8 |
| 20260902030022 | 66 | 224 | 0.0 | 0.0 | 0.00 | 0.00 | 0.00 | 61 | 1010.7 |
| 20260902025604 | 66 | 224 | 0.0 | 0.0 | 0.00 | 0.00 | 0.00 | 61 | 1010.7 |
| 20260902025104 | 66 | 216 | 0.0 | 0.0 | 0.00 | 0.00 | 0.00 | 59 | 1010.6 |
| 20260902024103 | 67 | 237 | 1.0 | 5.0 | 0.00 | 0.00 | 0.00 | 58 | 1010.5 |
| 20260902024023 | 67 | 221 | 0.0 | 2.0 | 0.00 | 0.00 | 0.00 | 58 | 1010.5 |
| 20260902023604 | 67 | 221 | 0.0 | 2.0 | 0.00 | 0.00 | 0.00 | 58 | 1010.5 |
| 20260902023104 | 67 | 222 | 1.0 | 5.0 | 0.00 | 0.00 | 0.00 | 57 | 1010.5 |
| 20260902022604 | 67 | 224 | 1.0 | 9.0 | 0.00 | 0.00 | 0.00 | 57 | 1010.4 |
| 20260902022104 | 67 | 223 | 2.0 | 6.0 | 0.00 | 0.00 | 0.00 | 57 | 1010.3 |
| 20260902021604 | 68 | 227 | 2.0 | 5.0 | 0.00 | 0.00 | 0.00 | 56 | 1010.2 |
| 20260902021103 | 68 | 231 | 0.0 | 6.0 | 0.00 | 0.00 | 0.00 | 56 | 1010.1 |
| 20260902021023 | 68 | 226 | 0.0 | 3.0 | 0.00 | 0.00 | 0.00 | 57 | 1010.2 |
| 20260902020604 | 68 | 226 | 0.0 | 3.0 | 0.00 | 0.00 | 0.00 | 57 | 1010.2 |
| 20260902020104 | 68 | 225 | 0.0 | 3.0 | 0.00 | 0.00 | 0.00 | 57 | 1010.0 |
| 20260902020025 | 68 | 225 | 0.0 | 3.0 | 0.00 | 0.00 | 0.00 | 56 | 1010.0 |
| 20260902015604 | 68 | 225 | 0.0 | 3.0 | 0.00 | 0.00 | 0.00 | 56 | 1010.0 |
| 20260902015103 | 68 | 222 | 1.0 | 5.0 | 0.00 | 0.00 | 0.00 | 56 | 1010.1 |
| 20260902015022 | 68 | 218 | 0.0 | 2.0 | 0.00 | 0.00 | 0.00 | 56 | 1010.0 |
| 20260902014604 | 68 | 218 | 0.0 | 2.0 | 0.00 | 0.00 | 0.00 | 56 | 1010.0 |
| 20260902014104 | 68 | 215 | 0.0 | 3.0 | 0.00 | 0.00 | 0.00 | 55 | 1010.0 |
| 20260902014023 | 69 | 216 | 0.0 | 7.0 | 0.00 | 0.00 | 0.00 | 55 | 1009.9 |
| 20260902013604 | 69 | 216 | 0.0 | 7.0 | 0.00 | 0.00 | 0.00 | 55 | 1009.9 |
| 20260902013104 | 69 | 231 | 0.0 | 3.0 | 0.00 | 0.00 | 0.00 | 54 | 1009.8 |
| 20260902013025 | 69 | 222 | 1.0 | 9.0 | 0.00 | 0.00 | 0.00 | 54 | 1009.8 |
| 20260902012604 | 69 | 222 | 1.0 | 9.0 | 0.00 | 0.00 | 0.00 | 54 | 1009.8 |
| 20260902012023 | 69 | 213 | 0.0 | 5.0 | 0.00 | 0.00 | 0.00 | 53 | 1009.6 |
| 20260902011104 | 69 | 225 | 1.0 | 8.0 | 0.00 | 0.00 | 0.00 | 52 | 1009.6 |
| 20260902011023 | 70 | 235 | 2.0 | 8.0 | 0.00 | 0.00 | 0.00 | 52 | 1009.6 |
| 20260902010604 | 70 | 235 | 2.0 | 8.0 | 0.00 | 0.00 | 0.00 | 52 | 1009.6 |
| 20260902010105 | 70 | 220 | 1.0 | 7.0 | 0.00 | 0.00 | 0.00 | 51 | 1009.6 |
| 20260902010024 | 71 | 221 | 0.0 | 2.0 | 0.00 | 0.00 | 0.00 | 51 | 1009.5 |
| 20260902005604 | 71 | 221 | 0.0 | 2.0 | 0.00 | 0.00 | 0.00 | 51 | 1009.5 |
| 20260902005104 | 71 | 244 | 0.0 | 0.0 | 0.00 | 0.00 | 0.00 | 50 | 1009.4 |
| 20260902005022 | 71 | 237 | 0.0 | 3.0 | 0.00 | 0.00 | 0.00 | 50 | 1009.3 |
| 20260902004604 | 71 | 237 | 0.0 | 3.0 | 0.00 | 0.00 | 0.00 | 50 | 1009.3 |
| 20260902004103 | 71 | 240 | 0.0 | 3.0 | 0.00 | 0.00 | 0.00 | 50 | 1009.2 |
| 20260902004022 | 71 | 246 | 0.0 | 5.0 | 0.00 | 0.00 | 0.00 | 50 | 1009.1 |
| 20260902003604 | 71 | 246 | 0.0 | 5.0 | 0.00 | 0.00 | 0.00 | 50 | 1009.1 |
| 20260902003104 | 71 | 223 | 0.0 | 3.0 | 0.00 | 0.00 | 0.00 | 50 | 1009.2 |
| 20260902003025 | 72 | 246 | 1.0 | 3.0 | 0.00 | 0.00 | 0.00 | 50 | 1009.2 |
| 20260902002604 | 72 | 246 | 1.0 | 3.0 | 0.00 | 0.00 | 0.00 | 50 | 1009.2 |
| 20260902002103 | 72 | 242 | 0.0 | 2.0 | 0.00 | 0.00 | 0.00 | 49 | 1009.1 |
| 20260902002022 | 72 | 257 | 1.0 | 3.0 | 0.00 | 0.00 | 0.00 | 49 | 1009.1 |
| 20260902001104 | 72 | 262 | 0.0 | 1.0 | 0.00 | 0.00 | 0.00 | 49 | 1009.1 |
| 20260902000604 | 72 | 275 | 0.0 | 3.0 | 0.00 | 0.00 | 0.00 | 50 | 1009.0 |
| 20260902000103 | 72 | 232 | 0.0 | 3.0 | 0.00 | 0.00 | 0.00 | 50 | 1009.0 |
| 20260902000024 | 72 | 251 | 0.0 | 0.0 | 0.00 | 0.00 | 0.00 | 50 | 1008.9 |
| 20260901235604 | 72 | 251 | 0.0 | 0.0 | 0.00 | 0.00 | 0.00 | 50 | 1008.9 |
| 20260901235023 | 72 | 9 | 0.0 | 5.0 | 0.00 | 0.00 | 0.00 | 48 | 1008.7 |
| 20260901234604 | 72 | 9 | 0.0 | 5.0 | 0.00 | 0.00 | 0.00 | 48 | 1008.7 |
| 20260901234104 | 73 | 298 | 0.0 | 3.0 | 0.00 | 0.00 | 0.00 | 49 | 1008.8 |
| 20260901234022 | 73 | 273 | 0.0 | 2.0 | 0.00 | 0.00 | 0.00 | 49 | 1008.7 |
| 20260901233603 | 73 | 273 | 0.0 | 2.0 | 0.00 | 0.00 | 0.00 | 49 | 1008.7 |
| 20260901233104 | 73 | 276 | 0.0 | 2.0 | 0.00 | 0.00 | 0.00 | 49 | 1008.8 |
| 20260901233024 | 73 | 211 | 0.0 | 3.0 | 0.00 | 0.00 | 0.00 | 49 | 1008.8 |
| 20260901232604 | 73 | 211 | 0.0 | 3.0 | 0.00 | 0.00 | 0.00 | 49 | 1008.8 |
| 20260901232104 | 73 | 238 | 0.0 | 3.0 | 0.00 | 0.00 | 0.00 | 49 | 1008.9 |
| 20260901232022 | 73 | 259 | 1.0 | 5.0 | 0.00 | 0.00 | 0.00 | 49 | 1008.8 |
| 20260901231104 | 73 | 297 | 0.0 | 3.0 | 0.00 | 0.00 | 0.00 | 49 | 1008.9 |
| 20260901231022 | 72 | 256 | 0.0 | 1.0 | 0.00 | 0.00 | 0.00 | 49 | 1008.8 |
| 20260901230024 | 72 | 296 | 0.0 | 3.0 | 0.00 | 0.00 | 0.00 | 49 | 1008.9 |
| 20260901225604 | 72 | 296 | 0.0 | 3.0 | 0.00 | 0.00 | 0.00 | 49 | 1008.9 |
| 20260901225023 | 73 | 218 | 0.0 | 3.0 | 0.00 | 0.00 | 0.00 | 48 | 1008.8 |
| 20260901224603 | 73 | 218 | 0.0 | 3.0 | 0.00 | 0.00 | 0.00 | 48 | 1008.8 |
| 20260901224023 | 73 | 290 | 0.0 | 2.0 | 0.00 | 0.00 | 0.00 | 47 | 1008.7 |
| 20260901223025 | 74 | 290 | 1.0 | 6.0 | 0.00 | 0.00 | 0.00 | 46 | 1008.8 |
| 20260901222103 | 74 | 331 | 1.0 | 6.0 | 0.00 | 0.00 | 0.00 | 46 | 1008.8 |
| 20260901222022 | 74 | 312 | 2.0 | 5.0 | 0.00 | 0.00 | 0.00 | 46 | 1008.7 |
| 20260901221604 | 74 | 312 | 2.0 | 5.0 | 0.00 | 0.00 | 0.00 | 46 | 1008.7 |
| 20260901221104 | 75 | 0 | 1.0 | 5.0 | 0.00 | 0.00 | 0.00 | 46 | 1008.8 |
| 20260901221022 | 75 | 350 | 5.0 | 10.0 | 0.00 | 0.00 | 0.00 | 45 | 1008.7 |
| 20260901220604 | 75 | 350 | 5.0 | 10.0 | 0.00 | 0.00 | 0.00 | 45 | 1008.7 |
| 20260901215604 | 75 | 351 | 2.0 | 6.0 | 0.00 | 0.00 | 0.00 | 44 | 1008.7 |
| 20260901215104 | 75 | 358 | 0.0 | 8.0 | 0.00 | 0.00 | 0.00 | 45 | 1008.8 |
| 20260901215022 | 75 | 334 | 1.0 | 6.0 | 0.00 | 0.00 | 0.00 | 45 | 1008.8 |
| 20260901214604 | 75 | 334 | 1.0 | 6.0 | 0.00 | 0.00 | 0.00 | 45 | 1008.8 |
| 20260901214104 | 75 | 350 | 1.0 | 7.0 | 0.00 | 0.00 | 0.00 | 45 | 1008.6 |
| 20260901214023 | 75 | 2 | 5.0 | 12.0 | 0.00 | 0.00 | 0.00 | 44 | 1008.7 |
| 20260901213603 | 75 | 2 | 5.0 | 12.0 | 0.00 | 0.00 | 0.00 | 44 | 1008.7 |
| 20260901213104 | 75 | 342 | 2.0 | 8.0 | 0.00 | 0.00 | 0.00 | 45 | 1008.8 |
| 20260901213025 | 75 | 333 | 2.0 | 8.0 | 0.00 | 0.00 | 0.00 | 45 | 1008.7 |
| 20260901212603 | 75 | 333 | 2.0 | 8.0 | 0.00 | 0.00 | 0.00 | 45 | 1008.7 |
| 20260901212104 | 75 | 341 | 1.0 | 10.0 | 0.00 | 0.00 | 0.00 | 45 | 1008.7 |
| 20260901212022 | 75 | 0 | 3.0 | 10.0 | 0.00 | 0.00 | 0.00 | 44 | 1008.8 |